カタログに戻る

AAU CUBESAT

運用中科学SSO
NORAD 27846·PAYLOAD·🇩🇰 Denmark

打ち上げ Jun 30, 2003 から Plesetsk Cosmodrome

Loading…

次のパス (今後24時間)

TLE

最新Source: Space-Track

元期: Sep 14, 2026, 10:54 UTC

1 27846U 03031G   26257.45474373  .00000144  00000-0  81742-4 0  9998
2 27846  98.6881 264.8922 0008038 262.9592  97.0672 14.23998093204393

AllMySatでAAU CUBESATをリアルタイム追跡

Download on the App Store